TimeEST,TemperatureF,Dew PointF,Humidity,Sea Level PressureIn,VisibilityMPH,Wind Direction,Wind SpeedMPH,Gust SpeedMPH,PrecipitationIn,Events,Conditions,WindDirDegrees,DateUTC
12:53 AM,28.9,25.0,85,30.03,10.0,Calm,Calm,-,N/A,,Clear,0,2013-12-29 05:53:00
1:53 AM,28.9,25.0,85,30.03,10.0,Calm,Calm,-,N/A,,Clear,0,2013-12-29 06:53:00
2:53 AM,30.9,26.1,82,30.02,10.0,Calm,Calm,-,N/A,,Clear,0,2013-12-29 07:53:00
3:53 AM,30.9,27.0,85,30.01,9.0,Calm,Calm,-,N/A,,Clear,0,2013-12-29 08:53:00
4:53 AM,30.9,27.0,85,29.99,10.0,East,3.5,-,N/A,,Clear,100,2013-12-29 09:53:00
5:53 AM,30.0,27.0,88,29.98,10.0,Calm,Calm,-,N/A,,Clear,0,2013-12-29 10:53:00
6:53 AM,32.0,28.0,85,29.97,10.0,Calm,Calm,-,N/A,,Clear,0,2013-12-29 11:53:00
7:53 AM,32.0,28.9,88,29.99,9.0,Calm,Calm,-,N/A,,Overcast,0,2013-12-29 12:53:00
8:53 AM,34.0,28.9,82,29.98,9.0,Calm,Calm,-,N/A,,Partly Cloudy,0,2013-12-29 13:53:00
9:10 AM,33.8,30.2,87,29.98,9.0,Calm,Calm,-,N/A,,Overcast,0,2013-12-29 14:10:00
9:53 AM,37.0,30.9,79,29.95,9.0,Calm,Calm,-,N/A,,Overcast,0,2013-12-29 14:53:00
10:53 AM,41.0,30.9,67,29.94,10.0,WSW,4.6,-,N/A,,Overcast,250,2013-12-29 15:53:00
11:53 AM,41.0,34.0,76,29.90,9.0,Calm,Calm,-,0.00,Rain,Light Rain,0,2013-12-29 16:53:00
12:53 PM,37.9,35.1,89,29.81,6.0,NNE,4.6,-,0.03,Rain,Rain,30,2013-12-29 17:53:00
1:40 PM,37.4,35.6,93,29.75,1.8,North,4.6,-,0.05,Rain,Rain,350,2013-12-29 18:40:00
1:51 PM,37.4,35.6,93,29.74,3.0,North,3.5,-,0.06,Rain,Rain,360,2013-12-29 18:51:00
1:53 PM,39.0,36.0,89,29.73,3.0,North,3.5,-,0.06,Rain,Rain,10,2013-12-29 18:53:00
2:08 PM,39.2,35.6,87,29.72,2.5,Calm,Calm,-,0.02,Rain,Rain,0,2013-12-29 19:08:00
2:21 PM,39.2,37.4,93,29.71,3.0,Calm,Calm,-,0.04,Rain,Rain,0,2013-12-29 19:21:00
2:53 PM,37.9,36.0,93,29.65,3.0,Calm,Calm,-,0.11,Rain,Rain,0,2013-12-29 19:53:00
3:00 PM,37.4,35.6,93,29.65,1.0,Calm,Calm,-,0.02,Rain,Rain,0,2013-12-29 20:00:00
3:07 PM,37.4,35.6,93,29.63,0.8,NNE,3.5,-,0.04,Rain,Rain,30,2013-12-29 20:07:00
3:25 PM,37.4,37.4,100,29.61,0.8,NNW,3.5,-,0.07,Rain,Rain,330,2013-12-29 20:25:00
3:53 PM,39.0,37.0,93,29.59,0.8,North,4.6,-,0.14,Rain,Rain,10,2013-12-29 20:53:00
4:23 PM,39.2,37.4,93,29.56,0.8,North,8.1,-,0.10,Rain,Rain,360,2013-12-29 21:23:00
4:46 PM,39.2,37.4,93,29.54,0.8,North,8.1,-,0.20,Rain,Rain,10,2013-12-29 21:46:00
4:53 PM,39.0,37.0,93,29.53,0.8,NE,4.6,-,0.23,Rain,Rain,40,2013-12-29 21:53:00
5:00 PM,39.2,37.4,93,29.53,2.0,North,4.6,-,0.04,Rain,Rain,360,2013-12-29 22:00:00
5:18 PM,39.2,37.4,93,29.54,1.8,North,6.9,-,0.12,Rain,Rain,360,2013-12-29 22:18:00
5:31 PM,39.2,37.4,93,29.54,2.5,North,6.9,-,0.18,Rain,Rain,360,2013-12-29 22:31:00
5:45 PM,39.2,37.4,93,29.54,4.0,North,9.2,-,0.21,Rain,Rain,350,2013-12-29 22:45:00
5:53 PM,39.0,37.0,93,29.52,5.0,North,11.5,-,0.21,Rain,Rain,10,2013-12-29 22:53:00
6:06 PM,39.2,37.4,93,29.52,2.5,North,8.1,18.4,0.01,Rain,Rain,350,2013-12-29 23:06:00
6:42 PM,39.2,37.4,93,29.49,3.0,North,13.8,-,0.02,Rain,Rain,10,2013-12-29 23:42:00
6:53 PM,39.9,37.0,89,29.49,5.0,North,11.5,21.9,0.02,Rain,Rain,360,2013-12-29 23:53:00
7:18 PM,39.2,37.4,93,29.51,4.0,North,8.1,-,0.01,Rain,Rain,360,2013-12-30 00:18:00
7:53 PM,39.0,37.0,93,29.53,5.0,NNW,10.4,17.3,0.02,Rain,Rain,340,2013-12-30 00:53:00
8:53 PM,39.0,36.0,89,29.58,10.0,NNW,10.4,-,0.02,Rain,Rain,340,2013-12-30 01:53:00
9:36 PM,39.2,35.6,87,29.61,8.0,North,6.9,-,0.00,Rain,Rain,360,2013-12-30 02:36:00
9:51 PM,39.2,35.6,87,29.60,8.0,North,8.1,-,0.00,Rain,Rain,10,2013-12-30 02:51:00
9:53 PM,39.0,36.0,89,29.60,9.0,North,6.9,-,0.00,Rain,Rain,360,2013-12-30 02:53:00
10:53 PM,37.0,35.1,93,29.64,10.0,Calm,Calm,-,0.00,Rain,Rain,0,2013-12-30 03:53:00
11:14 PM,33.8,33.8,100,29.65,1.5,Calm,Calm,-,0.00,Rain,Rain,0,2013-12-30 04:14:00
11:23 PM,35.6,33.8,93,29.65,0.5,Calm,Calm,-,0.00,Fog-Rain,Rain,0,2013-12-30 04:23:00
11:37 PM,33.8,32.0,93,29.65,0.2,Calm,Calm,-,0.00,Fog-Rain,Rain,0,2013-12-30 04:37:00
11:48 PM,33.8,32.0,93,29.67,0.5,Calm,Calm,-,0.00,Fog-Rain,Rain,0,2013-12-30 04:48:00
11:53 PM,33.1,30.9,92,29.66,0.8,Calm,Calm,-,0.00,Rain,Rain,0,2013-12-30 04:53:00